Regional Weather Roundup
Issued by NWS

Home | Current Version | Previous Version | Text Only | Print | Product List | Glossary On
Versions: 1 2 3 4 5 6 7 8 9 10 11 12 13 14 15 16 17 18 19 20 21 22 23 24 25 26 27 28 29 30 31 32 33 34 35 36 37 38 39 40 41 42 43 44 45 46 47 48 49 50
000
ASUS43 KMPX 270310
RWRMN
WEATHER ROUNDUP FOR MINNESOTA
NATIONAL WEATHER SERVICE TWIN CITIES/CHANHASSEN MN
1000 PM CDT MON SEP 26 2016


NOTE: "FAIR" INDICATES FEW OR NO CLOUDS BELOW 12,000 FEET WITH NO
SIGNIFICANT WEATHER AND/OR OBSTRUCTIONS TO VISIBILITY. N/A MEANS
CURRENT SKY AND/OR WEATHER CONDITIONS ARE NOT AVAILABLE.

MNZ060>063-068>070-270400-
   Twin Cities Metro

CITY           SKY/WX    TMP DP  RH WIND       PRES   REMARKS
TWIN CITIES    CLEAR     58  35  42 W14       29.87F
ST PAUL        CLEAR     57  36  45 W13       29.87F
CRYSTAL        CLEAR     55  35  47 W9        29.86F
BLAINE         CLEAR     54  39  58 W9        29.86F
LAKEVILLE      CLEAR     55  36  47 W8G16     29.89S
EDEN PRAIRIE   CLEAR     58  35  42 W10       29.87F
LAKEVILLE      CLEAR     55  36  47 W8G16     29.89S
SOUTH ST PAUL  CLEAR     58  35  42 W9        29.87S
LAKE ELMO      FAIR      52  39  62 W6        29.87S
$$
MNZ001>005-007-008-013>017-022>024-027-028-270400-
   Northwest Minnesota

CITY           SKY/WX    TMP DP  RH WIND       PRES   REMARKS
BEMIDJI        CLEAR     48  40  74 NW14      29.86F
HALLOCK        CLEAR     46  45  93 NW7       29.92S
ROSEAU         CLOUDY    54  45  71 NW18G24   29.85S
WARROAD        CLOUDY    52  45  76 NW20G28   29.83F
THIEF RVR FALL CLEAR     48  43  82 NW8       29.91F
CROOKSTON      CLEAR     48  45  87 N7        29.94S
FOSSTON        CLEAR     45  41  87 NW8       29.92S
DETROIT LAKES  CLEAR     52  37  58 NW12      29.92S
MOORHEAD       CLEAR     54  30  40 NW12      29.95S
PARK RAPIDS    CLEAR     51  40  65 NW13      29.89R
MAHNOMEN       FAIR      44  41  88 NW7       29.92S
$$
MNZ006-009>011-018-025>026-270400-
   North Central Minnesota

CITY           SKY/WX    TMP DP  RH WIND       PRES   REMARKS
BAUDETTE       CLOUDY    51  44  77 NW15G28   29.79S
FLAG ISLAND    CLOUDY    52  46  82 NW21G30   29.78S
INTL FALLS     LGT RAIN  50  47  89 NW14G25   29.71S
WASKISH        CLOUDY    52  45  76 NW18G29   29.81S
BIG FORK       LGT RAIN  52  45  76 W9        29.77S
GRAND RAPIDS   CLOUDY    53  42  66 NW18G24   29.79F
ORR            LGT RAIN  48  45  87 W14G22    29.68S
COOK           RAIN      48  46  93 W14G21    29.71S
WALKER         FAIR      49  40  71 NW15G22   29.86S
$$
MNZ012-019>021-037-270400-
   Northeast Minnesota

CITY           SKY/WX    TMP DP  RH WIND       PRES   REMARKS
DULUTH         LGT RAIN  52  45  77 NW21G30   29.71F
ELY            LGT RAIN  48  46  93 W12G20    29.64S
HIBBING        LGT RAIN  48  45  89 W13G24    29.73F
EVELETH        DRIZZLE   50  47  88 W17G26    29.72S
DULUTH HARBOR  MOCLDY    55  46  71 W17G31    29.73F
TWO HARBORS    DRIZZLE   54  48  82 W14G21    29.65F
SILVER BAY     DRIZZLE   52  48  87 W6        29.61F
GRAND MARAIS     N/A     51  48  89 SW9       29.54S
G MARAIS ARPRT CLOUDY    46  41  81 W8G16     29.53F
$$
MNZ029>031-032-039>041-046>048-054>057-064-270400-
   West Central Minnesota

CITY           SKY/WX    TMP DP  RH WIND       PRES   REMARKS
FERGUS FALLS   CLEAR     46  34  61 W8        29.96S
MORRIS         CLEAR     50  34  53 W9        29.95F
ALEXANDRIA     CLEAR     53  32  44 W13       29.93F
ELBOW LAKE     FAIR      46  33  61 NW6       29.95F
WADENA         CLEAR     48  39  71 W5        29.90S
GLENWOOD       CLEAR     52  34  50 W12       29.93F
BENSON         CLEAR     50  32  50 NW7       29.96S
ORTONVILLE     CLEAR     55  37  50 W12       29.98F
MADISON          N/A     52  39  62 W8        29.99S
WILLMAR        FAIR      54  36  50 W9        29.96S
$$
MNZ033>034-036-042>043-049>051-058-059-270400-
   Central Minnesota

CITY           SKY/WX    TMP DP  RH WIND       PRES   REMARKS
ST CLOUD       CLEAR     53  40  61 W9        29.88F
SAUK CENTRE    FAIR      50  35  56 W8        29.91F
PAYNESVILLE    CLEAR     52  33  48 W7        29.93S
AITKIN         PTCLDY    55  37  50 NW7G21    29.82S
PINE RIVER     PTCLDY    52  43  71 NW9G17    29.89F
BRAINERD       CLOUDY    55  41  59 NW16G23   29.87S
STAPLES        CLEAR     48  39  71 W7        29.89S
LONG PRAIRIE   FAIR      50  36  57 W8        29.91S
LITTLE FALLS   CLEAR     50  37  62 W6        29.88F
LITCHFIELD     CLEAR     57  36  44 W10G17    29.93S
BUFFALO        CLEAR     55  37  52 W9        29.90S
MAPLE LAKE     CLEAR     55  39  54 W5        29.90S
HUTCHINSON     CLEAR     51  37  59 W7        29.94S
$$
MNZ037-044-045-052-053-270400-
   East Central Minnesota

CITY           SKY/WX    TMP DP  RH WIND       PRES   REMARKS
PRINCETON      CLEAR     54  41  62 W6        29.87S
MORA           CLEAR     54  39  58 W10G17    29.85S
CAMBRIDGE      PTCLDY    57  41  54 W12G18    29.83F
MOOSE LAKE     CLOUDY    54  41  62 W12G18    29.77S
HINCKLEY       CLOUDY    57  43  58 NW9       29.80F
CLOQUET        CLOUDY    54  41  62 W16G26    29.74F
MCGREGOR       CLOUDY    54  43  66 W17G25    29.80F
$$
MNZ071>073-080-081-089-090-097-098-270400-
   Southwest Minnesota

CITY           SKY/WX    TMP DP  RH WIND       PRES   REMARKS
MONTEVIDEO     CLEAR     54  36  50 NW6       29.99S
GRANITE FALLS  CLEAR     52  39  61 W10       29.99S
CANBY          CLEAR     55  37  51 NW8       30.02S
MARSHALL       CLEAR     53  37  54 W12       30.00S
REDWOOD FALLS  CLEAR     54  36  50 W12       29.96S
OLIVIA         CLEAR     52  36  54 W8        29.95S
PIPESTONE      CLEAR     52  32  46 W6        30.03F
WINDOM         CLEAR     48  37  66 W8        30.00S
WORTHINGTON    CLEAR     50  36  58 W10       30.03S
JACKSON        CLEAR     52  32  46 W7        30.01S
TRACY          CLEAR     54  38  55 W7        30.00F
SLAYTON        CLEAR     52  34  50 W8        30.03R
$$
MNZ065>067-074>077-082>085-091>093-270400-
   South Central Minnesota

CITY           SKY/WX    TMP DP  RH WIND       PRES   REMARKS
MANKATO        CLEAR     55  36  48 W10       29.94S
ST JAMES       CLEAR     55  36  47 W10       29.98S
FAIRMONT       CLEAR     55  36  48 W10       29.98S
GLENCOE        CLEAR     55  38  53 W7        29.91F
FARIBAULT      CLEAR     55  37  50 W9        29.92S
OWATONNA       CLEAR     54  36  50 W9        29.92S
WASECA         CLEAR     52  37  58 W7        29.94S
ALBERT LEA     CLEAR     55  36  47 W7        29.95S
$$
MNZ078>079-086>088-094>096-270400-
   Southeast Minnesota

CITY           SKY/WX    TMP DP  RH WIND       PRES   REMARKS
ROCHESTER      CLEAR     53  37  54 W10       29.91F
RED WING       CLEAR     52  39  62 NW3       29.86S
DODGE CENTER   PTCLDY    50  37  62 W10       29.91S
WINONA         CLEAR     59  36  41 W9        29.86F
AUSTIN         CLEAR     54  36  50 W6        29.93S
PRESTON        CLEAR     52  36  53 W12       29.91F
$$
ABBREVIATIONS USED IN REMARKS
   TC - TEMPERATURES IN CELSIUS
  WCI - WIND CHILL INDEX
   HX - HEAT INDEX
  VSB - VISIBILITY
$$



USA.gov is the U.S. government's official web portal to all federal, state and local government web resources and services.